When you browse on this site, cookies collect data to enhance your experience and personalize the content and advertising you see.
Visit our Privacy Policy to learn more. By continuing to use the site, you agree to this use of cookies and data.
  • Em Portugal
  • Lista de países
  • Para 7 dias
  • Temperatura da água
  • Mapas de satélite
  • Mapa do tempo
  • Widgets de tempo
  • user-avatar
    Iniciar Sessão

    Previsão horária em Lipova

    Hoje, 26 Abril, Sexta-feira

    Tempo Temperatura Precipitação Vento Pressão Humidade
    00:00 0°C° 0 mm 1 m/s 750 mmHg 83%
    01:00 0°C° 0 mm 1 m/s 750 mmHg 83%
    02:00 0°C° 0 mm 1 m/s 750 mmHg 83%
    03:00 0°C° 0 mm 1 m/s 750 mmHg 82%
    04:00 -1°C° 0 mm 1 m/s 749 mmHg 84%
    05:00 +1°C° 0 mm 1 m/s 749 mmHg 79%
    06:00 +1°C° 0 mm 2 m/s 749 mmHg 74%
    07:00 +2°C° 0 mm 2 m/s 749 mmHg 69%
    08:00 +3°C° 0.3 mm 3 m/s 748 mmHg 65%
    09:00 +4°C° 0.3 mm 3 m/s 748 mmHg 62%
    10:00 +5°C° 0.3 mm 4 m/s 748 mmHg 58%
    11:00 +6°C° 0.3 mm 4 m/s 748 mmHg 56%
    12:00 +6°C° 0.3 mm 4 m/s 747 mmHg 54%
    13:00 +6°C° 0.3 mm 4 m/s 747 mmHg 52%
    14:00 +6°C° 0.1 mm 4 m/s 747 mmHg 52%
    15:00 +6°C° 0.1 mm 5 m/s 747 mmHg 51%
    16:00 +5°C° 0.1 mm 5 m/s 747 mmHg 51%
    17:00 +4°C° 0 mm 4 m/s 747 mmHg 54%
    18:00 +3°C° 0 mm 3 m/s 747 mmHg 58%
    19:00 +2°C° 0 mm 3 m/s 747 mmHg 61%
    20:00 +2°C° 0 mm 2 m/s 747 mmHg 67%
    21:00 -1°C° 0 mm 2 m/s 748 mmHg 72%
    22:00 -2°C° 0 mm 2 m/s 748 mmHg 78%
    23:00 0°C° 0 mm 1 m/s 748 mmHg 80%

    Amanhã, 27 Abril, Sábado

    Tempo Temperatura Precipitação Vento Pressão Humidade
    00:00 -1°C° 0 mm 1 m/s 748 mmHg 81%
    01:00 -1°C° 0 mm 1 m/s 748 mmHg 83%
    02:00 -1°C° 0 mm 1 m/s 748 mmHg 82%
    03:00 -2°C° 0 mm 1 m/s 748 mmHg 82%
    04:00 -2°C° 0 mm 1 m/s 748 mmHg 82%
    05:00 -1°C° 0 mm 1 m/s 748 mmHg 77%
    06:00 0°C° 0 mm 1 m/s 747 mmHg 73%
    07:00 -1°C° 0 mm 2 m/s 747 mmHg 68%
    08:00 -1°C° 0.5 mm 2 m/s 746 mmHg 71%
    09:00 0°C° 0.5 mm 3 m/s 745 mmHg 75%
    10:00 -1°C° 0.5 mm 4 m/s 745 mmHg 78%
    11:00 +1°C° 1.5 mm 3 m/s 744 mmHg 78%
    12:00 +3°C° 1.5 mm 3 m/s 743 mmHg 77%
    13:00 +4°C° 1.5 mm 3 m/s 742 mmHg 77%
    14:00 +5°C° 0.7 mm 3 m/s 741 mmHg 75%
    15:00 +6°C° 0.7 mm 4 m/s 740 mmHg 74%
    16:00 +7°C° 0.7 mm 4 m/s 740 mmHg 72%
    17:00 +8°C° 0.5 mm 3 m/s 739 mmHg 76%
    18:00 +7°C° 0.5 mm 3 m/s 739 mmHg 80%
    19:00 +7°C° 0.5 mm 3 m/s 738 mmHg 85%
    20:00 +5°C° 0.6 mm 3 m/s 738 mmHg 88%
    21:00 +4°C° 0.6 mm 3 m/s 738 mmHg 92%
    22:00 +4°C° 0.6 mm 2 m/s 738 mmHg 96%
    23:00 +3°C° 0.1 mm 2 m/s 738 mmHg 95%

    Depois de amanhã, 28 Abril, Domingo

    Tempo Temperatura Precipitação Vento Pressão Humidade
    00:00 0°C° 0.1 mm 3 m/s 738 mmHg 94%
    01:00 -1°C° 0.1 mm 3 m/s 738 mmHg 93%
    02:00 -1°C° 0 mm 3 m/s 738 mmHg 93%
    03:00 -2°C° 0 mm 2 m/s 738 mmHg 92%
    04:00 -2°C° 0 mm 2 m/s 738 mmHg 92%
    05:00 -2°C° 0 mm 3 m/s 739 mmHg 91%
    06:00 -2°C° 0 mm 3 m/s 739 mmHg 90%
    07:00 -2°C° 0 mm 4 m/s 739 mmHg 89%
    08:00 -2°C° 0.1 mm 4 m/s 739 mmHg 85%
    09:00 -1°C° 0.1 mm 4 m/s 740 mmHg 82%
    10:00 0°C° 0.1 mm 4 m/s 741 mmHg 79%
    11:00 0°C° 0.1 mm 4 m/s 741 mmHg 75%
    12:00 +1°C° 0.1 mm 5 m/s 741 mmHg 71%
    13:00 +2°C° 0.1 mm 5 m/s 742 mmHg 67%
    14:00 +2°C° 0.2 mm 5 m/s 742 mmHg 66%
    15:00 +3°C° 0.2 mm 4 m/s 742 mmHg 64%
    16:00 +3°C° 0.2 mm 4 m/s 743 mmHg 62%
    17:00 +1°C° 0.2 mm 4 m/s 743 mmHg 67%
    18:00 +1°C° 0.2 mm 3 m/s 743 mmHg 71%
    19:00 0°C° 0.2 mm 3 m/s 744 mmHg 76%
    20:00 0°C° 0.1 mm 3 m/s 744 mmHg 78%
    21:00 -1°C° 0.1 mm 3 m/s 745 mmHg 81%
    22:00 -2°C° 0.1 mm 3 m/s 745 mmHg 84%
    23:00 -3°C° 0 mm 2 m/s 746 mmHg 87%

    29 Abril, Segunda-feira

    Tempo Temperatura Precipitação Vento Pressão Humidade
    00:00 -3°C° 0 mm 2 m/s 746 mmHg 89%
    01:00 -4°C° 0 mm 2 m/s 746 mmHg 92%
    02:00 -5°C° 0 mm 2 m/s 747 mmHg 91%
    03:00 -5°C° 0 mm 2 m/s 747 mmHg 90%
    04:00 -5°C° 0 mm 2 m/s 747 mmHg 90%
    05:00 -5°C° 0.1 mm 2 m/s 748 mmHg 87%
    06:00 -4°C° 0.1 mm 2 m/s 748 mmHg 84%
    07:00 -5°C° 0.1 mm 3 m/s 748 mmHg 81%
    08:00 -4°C° 0 mm 3 m/s 749 mmHg 74%
    09:00 -2°C° 0 mm 3 m/s 749 mmHg 68%
    10:00 -1°C° 0 mm 3 m/s 749 mmHg 61%
    11:00 0°C° 0 mm 3 m/s 749 mmHg 58%
    12:00 0°C° 0 mm 3 m/s 749 mmHg 56%
    13:00 +1°C° 0 mm 3 m/s 749 mmHg 53%
    14:00 +1°C° 0 mm 3 m/s 749 mmHg 53%
    15:00 +1°C° 0 mm 3 m/s 749 mmHg 52%
    16:00 +1°C° 0 mm 3 m/s 749 mmHg 52%
    17:00 0°C° 0 mm 3 m/s 749 mmHg 57%
    18:00 -1°C° 0 mm 2 m/s 749 mmHg 61%
    19:00 -1°C° 0 mm 2 m/s 749 mmHg 66%
    20:00 -2°C° 0 mm 2 m/s 750 mmHg 71%
    21:00 -3°C° 0 mm 2 m/s 750 mmHg 77%
    22:00 -3°C° 0 mm 1 m/s 750 mmHg 82%
    23:00 -3°C° 0 mm 1 m/s 750 mmHg 84%

    30 Abril, Terça-feira

    Tempo Temperatura Precipitação Vento Pressão Humidade
    00:00 -3°C° 0 mm 1 m/s 750 mmHg 85%
    01:00 -4°C° 0 mm 1 m/s 750 mmHg 87%
    02:00 -4°C° 0 mm 1 m/s 750 mmHg 87%
    03:00 -4°C° 0 mm 1 m/s 750 mmHg 86%
    04:00 -4°C° 0 mm 1 m/s 750 mmHg 86%
    05:00 -3°C° 0 mm 1 m/s 750 mmHg 80%
    06:00 -4°C° 0 mm 2 m/s 749 mmHg 73%
    07:00 -3°C° 0 mm 2 m/s 749 mmHg 67%
    08:00 -2°C° 0 mm 2 m/s 749 mmHg 61%
    09:00 -1°C° 0 mm 2 m/s 749 mmHg 56%
    10:00 0°C° 0 mm 3 m/s 749 mmHg 50%
    11:00 +1°C° 0 mm 3 m/s 748 mmHg 49%
    12:00 +1°C° 0 mm 3 m/s 748 mmHg 47%
    13:00 +2°C° 0 mm 3 m/s 748 mmHg 46%
    14:00 +1°C° 0 mm 4 m/s 747 mmHg 46%
    15:00 +1°C° 0 mm 4 m/s 747 mmHg 47%
    16:00 +1°C° 0 mm 4 m/s 747 mmHg 47%
    17:00 +2°C° 0 mm 3 m/s 747 mmHg 52%
    18:00 +1°C° 0 mm 3 m/s 746 mmHg 56%
    19:00 +2°C° 0 mm 2 m/s 746 mmHg 61%
    20:00 +1°C° 0 mm 2 m/s 746 mmHg 64%
    21:00 -1°C° 0 mm 3 m/s 745 mmHg 67%
    22:00 -2°C° 0 mm 3 m/s 745 mmHg 71%
    23:00 -2°C° 0.1 mm 3 m/s 745 mmHg 72%

    1 Maio, Quarta-feira

    Tempo Temperatura Precipitação Vento Pressão Humidade
    00:00 -1°C° 0.1 mm 3 m/s 744 mmHg 73%
    01:00 -2°C° 0.1 mm 4 m/s 744 mmHg 75%
    02:00 -2°C° 0.2 mm 4 m/s 744 mmHg 79%
    03:00 -1°C° 0.2 mm 3 m/s 744 mmHg 83%
    04:00 -2°C° 0.2 mm 3 m/s 744 mmHg 87%
    05:00 -1°C° 0 mm 3 m/s 744 mmHg 83%
    06:00 -1°C° 0 mm 3 m/s 744 mmHg 79%
    07:00 -1°C° 0 mm 3 m/s 745 mmHg 75%
    08:00 -1°C° 0 mm 4 m/s 745 mmHg 69%
    09:00 0°C° 0 mm 4 m/s 745 mmHg 63%
    10:00 +1°C° 0 mm 4 m/s 745 mmHg 57%
    11:00 +3°C° 0 mm 4 m/s 746 mmHg 55%
    12:00 +3°C° 0 mm 3 m/s 746 mmHg 54%
    13:00 +3°C° 0 mm 3 m/s 746 mmHg 53%
    14:00 +4°C° 0 mm 3 m/s 746 mmHg 52%
    15:00 +4°C° 0 mm 3 m/s 746 mmHg 51%
    16:00 +5°C° 0 mm 2 m/s 746 mmHg 50%
    17:00 +5°C° 0 mm 2 m/s 746 mmHg 55%
    18:00 +5°C° 0 mm 1 m/s 746 mmHg 60%
    19:00 +4°C° 0 mm 0 m/s 746 mmHg 64%
    20:00 +2°C° 0 mm 0 m/s 746 mmHg 68%
    21:00 +1°C° 0 mm 0 m/s 746 mmHg 71%
    22:00 0°C° 0 mm 0 m/s 746 mmHg 75%
    23:00 +1°C° 0 mm 1 m/s 746 mmHg 75%
    Mostrar mais